Regional Weather Roundup
Issued by NWS

Home | Current Version | Previous Version | Text Only | Print | Product List | Glossary On
Versions: 1 2 3 4 5 6 7 8 9 10 11 12 13 14 15 16 17 18 19 20 21 22 23 24 25 26 27 28
000
ASUS46 KSEW 161110
RWRWA

WASHINGTON REGIONAL WEATHER ROUNDUP
NATIONAL WEATHER SERVICE SEATTLE WA
300 AM PST SAT DEC 16 2017

NOTE:"FAIR" INDICATES FEW OR NO CLOUDS BELOW 12,000 FEET WITH NO
SIGNIFICANT WEATHER AND/OR OBSTRUCTIONS TO VISIBILITY.

WAZ507-509-555>559-161200-
SEATTLE, TACOMA, EVERETT, AND VICINITY

CITY           SKY/WX    TMP DP  RH WIND       PRES   REMARKS
EVERETT        MOCLDY    39  37  92 SE7       30.28S
BOEING FIELD   MOCLDY    38  37  97 SE5       30.30S
RENTON         MOCLDY    39  38  96 CALM      30.30S
SEATAC AIRPORT CLOUDY    40  39  97 SE5       30.29R
JBLM-MCCHORD   CLOUDY    35  35 100 S5        30.29S
PUYALLUP       FAIR      39  39 100 CALM      30.29S
BREMERTON      CLOUDY    39  38  96 CALM      30.29R
JBLM-FT LEWIS  CLOUDY    35  35 100 SE6       30.29R
TACOMA NARROWS MOCLDY    40  39  97 SE3       30.29R
$$

WAZ001-503-506-510-514-515-161200-
NORTH INTERIOR

CITY           SKY/WX    TMP DP  RH WIND       PRES   REMARKS
BELLINGHAM     CLOUDY    43  38  82 SW3       30.26S
FRIDAY HARBOR  MOCLDY    37  37 100 W3        30.28R
EASTSOUND      MOCLDY    39  37  93 S5        30.27R
PORT ANGELES   MOCLDY    43  35  73 W9        30.28R
EDIZ HOOK      FAIR      46  37  70 W12       30.27S
PORT TOWNSEND  FAIR      34  34 100 CALM      30.30R FOG
NAS WHIDBEY    CLOUDY    42  39  89 E8        30.32R
ARLINGTON      LGT RAIN  38  38 100 CALM      30.30S FOG
BURLINGTON     FOG       36  36 100 CALM      30.29R VSB 1/2
$$

WAZ020-022-039-040-504-511-512-161200-
SOUTHWEST INTERIOR

CITY           SKY/WX    TMP DP  RH WIND       PRES   REMARKS
SHELTON        FOG       35  34  96 CALM      30.27S VSB 1/4
OLYMPIA        CLOUDY    34  33  96 CALM      30.29S
CHEHALIS         N/A     37  36  93 SW6       30.31S
KELSO          CLOUDY    37  36  96 SE10      30.36S
VANCOUVER      CLOUDY    35  35 100 CALM      30.36S FOG
SCAPPOOSE, OR  CLOUDY    33  32  96 CALM      30.37R FOG
PORTLAND, OR   CLOUDY    38  37  97 E5        30.37S
$$

WAZ021-516-517-161200-
WASHINGTON COAST

CITY           SKY/WX    TMP DP  RH WIND       PRES   REMARKS
FORKS          CLOUDY    46  39  76 W5        30.29S
HOQUIAM        MOCLDY    45  42  89 W10       30.32R
ASTORIA, OR    CLOUDY    45  40  82 CALM      30.34S
$$

WAZ019-023-024-040-567>569-161200-
CASCADE MOUNTAINS AND COLUMBIA GORGE

CITY           SKY/WX    TMP DP  RH WIND       PRES   REMARKS
STAMPEDE PASS  FOG       30  28  92 VRB5      30.14R VSB 1/2
TROUTDALE, OR  MOCLDY    38  36  92 CALM      30.37S FOG
HOOD RIVER, OR CLOUDY    41  34  75 CALM      30.29S
THE DALLES, OR CLOUDY    42  33  70 SE5       30.28R
$$

WAZ026-027-041>044-520-521-161200-
EAST SLOPES

CITY           SKY/WX    TMP DP  RH WIND       PRES   REMARKS
OMAK           PTCLDY    27  26  96 CALM      30.21S
WENATCHEE      CLOUDY    29  28  96 VRB3      30.20R
ELLENSBURG     PTCLDY    30  26  85 W7        30.18S
YAKIMA         MOCLDY    26  23  88 W7        30.23R
SUNNYSIDE ARPT PTSUNNY   24  22  94 CALM      30.25S
YAKIMA TC      FAIR      28  24  84 SW7       30.19R
$$

WAZ028-034-035-161200-
COLUMBIA BASIN

CITY           SKY/WX    TMP DP  RH WIND       PRES   REMARKS
EPHRATA        CLOUDY    30  25  81 CALM      30.20R
MOSES LAKE     CLOUDY    31  28  89 W3        30.21S
PASCO          CLOUDY    30  28  92 SW3       30.27S
RICHLAND ARPT  CLOUDY    32  31  96 CALM      30.27R
HERMISTON, OR  MOCLDY    29  28  96 CALM      30.24S
$$

WAZ036>038-161200-
NORTHEAST WASHINGTON

CITY           SKY/WX    TMP DP  RH WIND       PRES   REMARKS
SPOKANE GEIGER CLOUDY    25  24  96 SW6       30.14R FOG
SPOKANE FELTS  CLOUDY    27  25  92 CALM      30.16R
FAIRCHILD AFB  CLOUDY    25  25 100 W8        30.12R
COEURDALENE,ID CLOUDY    24  23  96 SW6       30.13R
DEER PARK      CLOUDY    24  23  96 S3        30.14R
$$

WAZ029>033-161200-
SOUTHEAST WASHINGTON

CITY           SKY/WX    TMP DP  RH WIND       PRES   REMARKS
PULLMAN        LGT SNOW  24  21  88 NW8       30.14R FOG
LEWISTON, ID   LGT SNOW  29  29 100 S5        30.19R VSB 1
WALLA WALLA    CLOUDY    32  29  88 SW3       30.22R
PENDLETON, OR  MOCLDY    33  30  88 W8        30.19S
$$




USA.gov is the U.S. government's official web portal to all federal, state and local government web resources and services.